Atoka, OK

1:16 PM CST on November 20, 2019 (GMT -0600)
Atoka Municipal

Weather History for KAQR - July, 2019

Change the Weather History Date:

Thursday, July 18, 2019

  Actual Average (KMLC) Record (KMLC)
Temperature  
Mean Temperature 85 °F -  
Max Temperature 93 °F 93 °F 110 °F (1954)
Min Temperature 77 °F 72 °F 62 °F (2004)
Cooling Degree Days 20    
Growing Degree Days 35 (Base 50)    
Moisture  
Dew Point 70 °F    
Average Humidity 63    
Maximum Humidity 89    
Minimum Humidity 41    
Precipitation  
Precipitation 0.00 in - - ()
Sea Level Pressure  
Sea Level Pressure 29.96 in    
Wind  
Wind Speed 7 mph (South)    
Max Wind Speed 16 mph    
Max Gust Speed 22 mph    
Visibility 10 miles    
Events      
Averages and records for this station are not official NWS values.
T = Trace of Precipitation, MM = Missing Value Source: NWS Daily Summary

Daily Weather History Graph

Daily Weather History Graph

Search for Another Location

Airport or City:

Astronomy

Jul. 18, 2019 Rise Set
Actual Time 6:25 AM CDT 8:36 PM CDT
Civil Twilight 5:56 AM CDT 9:04 PM CDT
Nautical Twilight 5:21 AM CDT 9:39 PM CDT
Astronomical Twilight 4:44 AM CDT 10:16 PM CDT
Moon 10:05 PM CDT (7/18) 7:54 AM CDT (7/18)
Length of Visible Light 15h 07m
Length of Day
14h 10m
Full, 97% of the Moon is Illuminated
Jul 18
Full
Jul 24
Last Quarter
Jul 31
New
Aug 7
First Quarter
Aug 15
Full

Hourly Weather History & Observations

Time (CDT) Temp. Heat Index Dew Point Humidity Pressure Visibility Wind Dir Wind Speed Gust Speed Precip Events Conditions
12:15 AM 80.6 °F 83.9 °F 69.8 °F 70% 29.98 in 10.0 mi SSE 5.8 mph - N/A   Clear
12:35 AM 80.6 °F 83.9 °F 69.8 °F 70% 29.98 in 10.0 mi SSE 4.6 mph - N/A   Clear
12:55 AM 80.6 °F 83.9 °F 69.8 °F 70% 29.98 in 10.0 mi SSE 3.5 mph - N/A   Clear
1:15 AM 78.8 °F - 69.8 °F 74% 29.99 in 10.0 mi SSE 4.6 mph - N/A   Clear
1:40 AM 78.8 °F - 71.6 °F 78% 29.99 in 10.0 mi SSE 4.6 mph - N/A   Clear
1:55 AM 78.8 °F - 71.6 °F 78% 29.99 in 10.0 mi SSE 4.6 mph - N/A   Clear
2:15 AM 78.8 °F - 71.6 °F 78% 29.99 in 10.0 mi SSE 4.6 mph - N/A   Clear
2:35 AM 78.8 °F - 71.6 °F 78% 29.99 in 10.0 mi SSE 3.5 mph - N/A   Clear
3:15 AM 77.0 °F - 71.6 °F 83% 29.98 in 10.0 mi Calm Calm - N/A   Clear
3:35 AM 78.8 °F - 71.6 °F 78% 29.98 in 10.0 mi South 4.6 mph - N/A   Clear
3:55 AM 78.8 °F - 71.6 °F 78% 29.97 in 10.0 mi South 5.8 mph - N/A   Clear
4:15 AM 78.8 °F - 71.6 °F 78% 29.97 in 10.0 mi South 5.8 mph - N/A   Clear
4:35 AM 77.0 °F - 71.6 °F 83% 29.96 in 10.0 mi South 4.6 mph - N/A   Clear
4:55 AM 77.0 °F - 71.6 °F 83% 29.97 in 10.0 mi SSE 4.6 mph - N/A   Clear
5:15 AM 77.0 °F - 71.6 °F 83% 29.97 in 10.0 mi South 6.9 mph - N/A   Clear
5:35 AM 77.0 °F - 71.6 °F 83% 29.98 in 10.0 mi South 5.8 mph - N/A   Clear
5:55 AM 77.0 °F - 71.6 °F 83% 29.98 in 10.0 mi South 4.6 mph - N/A   Clear
6:10 AM 77.0 °F - 71.6 °F 83% 29.98 in 10.0 mi South 5.8 mph - N/A   Clear
6:35 AM 77.0 °F - 73.4 °F 89% 29.98 in 10.0 mi South 4.6 mph - N/A   Clear
6:55 AM 77.0 °F - 73.4 °F 89% 29.98 in 10.0 mi South 6.9 mph - N/A   Clear
7:10 AM 77.0 °F - 73.4 °F 89% 29.98 in 10.0 mi South 6.9 mph - N/A   Clear
7:35 AM 78.8 °F - 73.4 °F 83% 29.99 in 10.0 mi South 9.2 mph - N/A   Clear
7:55 AM 78.8 °F - 71.6 °F 78% 29.99 in 10.0 mi South 11.5 mph - N/A   Clear
8:15 AM 80.6 °F 84.6 °F 71.6 °F 74% 30.00 in 10.0 mi South 8.1 mph - N/A   Clear
8:35 AM 80.6 °F 84.6 °F 71.6 °F 74% 30.00 in 10.0 mi SSW 6.9 mph - N/A   Clear
8:55 AM 80.6 °F 83.9 °F 69.8 °F 70% 30.01 in 10.0 mi SSW 9.2 mph 17.3 mph N/A   Clear
9:15 AM 82.4 °F 86.3 °F 69.8 °F 66% 30.00 in 10.0 mi SSW 11.5 mph 17.3 mph N/A   Clear
9:35 AM 82.4 °F 86.3 °F 69.8 °F 66% 30.00 in 10.0 mi South 11.5 mph 16.1 mph N/A   Clear
9:55 AM 84.2 °F 88.4 °F 69.8 °F 62% 30.00 in - SSW 13.8 mph - N/A   Unknown
10:15 AM 84.2 °F 87.3 °F 68.0 °F 58% 30.00 in 10.0 mi SSW 9.2 mph 18.4 mph N/A   Clear
10:35 AM 86.0 °F 89.4 °F 68.0 °F 55% 30.00 in 10.0 mi SSW 10.4 mph - N/A   Clear
10:55 AM 86.0 °F 90.4 °F 69.8 °F 58% 30.00 in 10.0 mi South 12.7 mph 17.3 mph N/A   Clear
11:15 AM 87.8 °F 91.4 °F 68.0 °F 52% 30.00 in 10.0 mi South 11.5 mph 17.3 mph N/A   Clear
11:35 AM 87.8 °F 92.6 °F 69.8 °F 55% 30.00 in 10.0 mi SSW 9.2 mph 16.1 mph N/A   Clear
11:55 AM 87.8 °F 91.4 °F 68.0 °F 52% 29.99 in 10.0 mi South 6.9 mph 10.4 mph N/A   Clear
12:10 PM 87.8 °F 91.4 °F 68.0 °F 52% 29.99 in 10.0 mi SSW 6.9 mph - N/A   Clear
12:35 PM 89.6 °F 93.4 °F 68.0 °F 49% 29.98 in 10.0 mi South 12.7 mph - N/A   Clear
12:55 PM 89.6 °F 93.4 °F 68.0 °F 49% 29.98 in 10.0 mi South 12.7 mph 16.1 mph N/A   Clear
1:15 PM 89.6 °F 93.4 °F 68.0 °F 49% 29.97 in 10.0 mi SSW 12.7 mph 18.4 mph N/A   Clear
1:35 PM 91.4 °F 95.4 °F 68.0 °F 46% 29.97 in 10.0 mi South 10.4 mph 17.3 mph N/A   Clear
1:55 PM 91.4 °F 95.4 °F 68.0 °F 46% 29.96 in 10.0 mi South 11.5 mph - N/A   Clear
2:00 PM 91.4 °F 95.4 °F 68.0 °F 46% 29.96 in 10.0 mi SSW 9.2 mph 18.4 mph N/A   Clear
2:15 PM 91.4 °F 95.4 °F 68.0 °F 46% 29.95 in 10.0 mi South 10.4 mph - N/A   Clear
2:35 PM 91.4 °F 96.8 °F 69.8 °F 49% 29.95 in 10.0 mi SSW 9.2 mph - N/A   Clear
2:55 PM 91.4 °F 96.8 °F 69.8 °F 49% 29.95 in 10.0 mi South 12.7 mph 19.6 mph N/A   Clear
3:15 PM 91.4 °F 96.8 °F 69.8 °F 49% 29.94 in 10.0 mi South 16.1 mph 20.7 mph N/A   Clear
3:35 PM 91.4 °F 96.8 °F 69.8 °F 49% 29.93 in 10.0 mi South 9.2 mph 17.3 mph N/A   Clear
3:50 PM 91.4 °F 96.8 °F 69.8 °F 49% 29.93 in 10.0 mi South 12.7 mph 21.9 mph N/A   Clear
4:15 PM 93.2 °F 97.7 °F 68.0 °F 44% 29.92 in 10.0 mi South 15.0 mph 19.6 mph N/A   Clear
4:30 PM 93.2 °F 97.7 °F 68.0 °F 44% 29.92 in 10.0 mi South 13.8 mph 21.9 mph N/A   Clear
4:55 PM 93.2 °F 96.2 °F 66.2 °F 41% 29.91 in 10.0 mi South 13.8 mph 21.9 mph N/A   Clear
5:15 PM 93.2 °F 96.2 °F 66.2 °F 41% 29.91 in 10.0 mi South 12.7 mph 20.7 mph N/A   Clear
5:35 PM 93.2 °F 96.2 °F 66.2 °F 41% 29.90 in 10.0 mi South 12.7 mph 18.4 mph N/A   Clear
5:55 PM 93.2 °F 96.2 °F 66.2 °F 41% 29.89 in 10.0 mi South 12.7 mph 18.4 mph N/A   Clear
6:15 PM 93.2 °F 97.7 °F 68.0 °F 44% 29.89 in 10.0 mi South 8.1 mph 17.3 mph N/A   Clear
6:35 PM 91.4 °F 95.4 °F 68.0 °F 46% 29.88 in 10.0 mi South 10.4 mph 17.3 mph N/A   Clear
6:55 PM 91.4 °F 95.4 °F 68.0 °F 46% 29.88 in 10.0 mi South 11.5 mph 18.4 mph N/A   Clear
7:15 PM 89.6 °F 94.7 °F 69.8 °F 52% 29.88 in 10.0 mi South 9.2 mph - N/A   Clear
7:55 PM 87.8 °F 92.6 °F 69.8 °F 55% 29.88 in 10.0 mi SSE 6.9 mph - N/A   Clear
8:15 PM 87.8 °F 92.6 °F 69.8 °F 55% 29.89 in 10.0 mi SSE 6.9 mph - N/A   Clear
8:35 PM 86.0 °F 89.4 °F 68.0 °F 55% 29.89 in 10.0 mi SSE 4.6 mph - N/A   Clear
8:55 PM 84.2 °F 87.3 °F 68.0 °F 58% 29.89 in 10.0 mi SSE 4.6 mph - N/A   Clear
9:15 PM 82.4 °F 85.4 °F 68.0 °F 62% 29.90 in 10.0 mi SSE 5.8 mph - N/A   Clear
9:35 PM 82.4 °F 85.4 °F 68.0 °F 62% 29.90 in 10.0 mi SSE 5.8 mph - N/A   Clear
9:55 PM 82.4 °F 85.4 °F 68.0 °F 62% 29.91 in 10.0 mi SSE 5.8 mph - N/A   Clear
10:15 PM 82.4 °F 85.4 °F 68.0 °F 62% 29.92 in 10.0 mi SSE 3.5 mph - N/A   Clear
10:35 PM 80.6 °F 83.2 °F 68.0 °F 65% 29.92 in 10.0 mi SSE 4.6 mph - N/A   Clear
10:55 PM 80.6 °F 83.2 °F 68.0 °F 65% 29.93 in 10.0 mi SE 3.5 mph - N/A   Clear
11:15 PM 80.6 °F 83.2 °F 68.0 °F 65% 29.93 in 10.0 mi SSE 4.6 mph - N/A   Clear
11:55 PM 78.8 °F - 68.0 °F 69% 29.95 in 10.0 mi Calm Calm - N/A   Clear